Satellite: FO-70
Catalog number: 37380
Epoch time:      12103.47406603
Element set:    0159
Inclination:      071.9710 deg
RA of node:       097.4324 deg
Eccentricity:    0.0015706
Arg of perigee:   079.2594 deg
Mean anomaly:     281.0355 deg
Mean motion:   14.76751023 rev/day
Decay rate:       4.00e-06 rev/day^2
Epoch rev:           02628
Checksum:              281

Satellite: ALMASAT-1
Catalog number: 38078
Epoch time:      12103.48791226
Element set:     116
Inclination:      069.4896 deg
RA of node:       105.8540 deg
Eccentricity:    0.0769364
Arg of perigee:   330.7263 deg
Mean anomaly:     025.2729 deg
Mean motion:   14.06774639 rev/day
Decay rate:     2.5028e-04 rev/day^2
Epoch rev:             830
Checksum:              315

Satellite: XATCOBEO
Catalog number: 38082
Epoch time:      12103.39847647
Element set:     157
Inclination:      069.4863 deg
RA of node:       105.5612 deg
Eccentricity:    0.0761347
Arg of perigee:   330.5403 deg
Mean anomaly:     025.4767 deg
Mean motion:   14.10516678 rev/day
Decay rate:     5.5856e-04 rev/day^2
Epoch rev:             829
Checksum:              316

/EX
SB KEPS @ AMSAT  $ORB12103.W
Orbital Elements  12103.WEATHER

HR AMSAT ORBITAL ELEMENTS FOR WEATHER SATELLITES
FROM WA5QGD FORT WORTH,TX April 12, 2012
Send SUBSCRIBE KEPS/UNSUBSCRIBE KEPS to majordomo at amsat.org only
BID: ORB12103.W
TO ALL RADIO AMATEURS BT

Satellite: NOAA-10
Catalog number: 16969
Epoch time:      12102.71494475
Element set:    0882
Inclination:      098.5861 deg
RA of node:       132.9326 deg
Eccentricity:    0.0013173
Arg of perigee:   070.0552 deg
Mean anomaly:     290.2037 deg
Mean motion:   14.27540042 rev/day
Decay rate:       -2.4e-07 rev/day^2
Epoch rev:           33038
Checksum:              281

Satellite: NOAA-11
Catalog number: 19531
Epoch time:      12102.81627398
Element set:    0884
Inclination:      098.7324 deg
RA of node:       189.3674 deg
Eccentricity:    0.0012021
Arg of perigee:   055.1030 deg
Mean anomaly:     305.1278 deg
Mean motion:   14.14960154 rev/day
Decay rate:      -1.58e-06 rev/day^2
Epoch rev:           21512
Checksum:              279

Satellite: NOAA-12
Catalog number: 21263
Epoch time:      12102.92763647
Element set:    0384
Inclination:      098.7336 deg
RA of node:       124.8898 deg
Eccentricity:    0.0014639
Arg of perigee:   036.1163 deg
Mean anomaly:     324.1002 deg
Mean motion:   14.25487624 rev/day
Decay rate:        5.0e-07 rev/day^2
Epoch rev:           08711
Checksum:              289

Satellite: MET-3/5
Catalog number: 21655
Epoch time:      12103.81650399
Element set:     382
Inclination:      082.5611 deg
RA of node:       198.3598 deg
Eccentricity:    0.0014646
Arg of perigee:   123.2474 deg
Mean anomaly:     237.0003 deg
Mean motion:   13.17038074 rev/day
Decay rate:        5.1e-07 rev/day^2
Epoch rev:           99329
Checksum:              296

Satellite: MET-2/21
Catalog number: 22782
Epoch time:      12102.91884953
Element set:    0389
Inclination:      082.5448 deg
RA of node:       085.0902 deg
Eccentricity:    0.0022118
Arg of perigee:   342.6934 deg
Mean anomaly:     017.3484 deg
Mean motion:   13.83678539 rev/day
Decay rate:        3.1e-07 rev/day^2
Epoch rev:           94000
Checksum:              307

Satellite: OKEAN-4
Catalog number: 23317
Epoch time:      12102.94177329
Element set:    0923
Inclination:      082.5368 deg
RA of node:       093.1287 deg
Eccentricity:    0.0020429
Arg of perigee:   206.3287 deg
Mean anomaly:     153.6890 deg
Mean motion:   14.83676002 rev/day
Decay rate:       7.31e-06 rev/day^2
Epoch rev:           94498
Checksum:              313

Satellite: NOAA-14
Catalog number: 23455
Epoch time:      12102.95153936
Element set:    0872
Inclination:      098.8262 deg
RA of node:       187.2790 deg
Eccentricity:    0.0009726
Arg of perigee:   143.6236 deg
Mean anomaly:     216.5596 deg
Mean motion:   14.13888744 rev/day
Decay rate:        5.5e-07 rev/day^2
Epoch rev:           89143
Checksum:              334

Satellite: NOAA-15
Catalog number: 25338
Epoch time:      12102.84690624
Element set:    0221
Inclination:      098.6870 deg
RA of node:       090.3951 deg
Eccentricity:    0.0009839
Arg of perigee:   304.7745 deg
Mean anomaly:     055.2489 deg
Mean motion:   14.25051622 rev/day
Decay rate:       2.42e-06 rev/day^2
Epoch rev:           72340
Checksum:              296

Satellite: RESURS
Catalog number: 25394
Epoch time:      12103.92793237
Element set:      60
Inclination:      098.3182 deg
RA of node:       095.6144 deg
Eccentricity:    0.0002418
Arg of perigee:   072.5200 deg
Mean anomaly:     287.6244 deg
Mean motion:   14.24281815 rev/day
Decay rate:        4.1e-07 rev/day^2
Epoch rev:           71511
Checksum:              268

Satellite: FENGYUN1
Catalog number: 25730
Epoch time:      12102.91284810
Element set:    0587
Inclination:      098.8441 deg
RA of node:       063.0669 deg
Eccentricity:    0.0017566
Arg of perigee:   192.0112 deg
Mean anomaly:     168.0623 deg
Mean motion:   14.09384770 rev/day
Decay rate:      1.247e-05 rev/day^2
Epoch rev:           66527
Checksum:              299

Satellite: OKEAN-0
Catalog number: 25860
Epoch time:      12103.89680973
Element set:     598
Inclination:      097.9298 deg
RA of node:       067.9048 deg
Eccentricity:    0.0001884
Arg of perigee:   082.5250 deg
Mean anomaly:     277.6173 deg
Mean motion:   14.74146973 rev/day
Decay rate:       4.31e-06 rev/day^2
Epoch rev:           68495
Checksum:              350

Satellite: NOAA-16
Catalog number: 26536
Epoch time:      12102.81703747
Element set:    0704
Inclination:      099.1010 deg
RA of node:       143.8925 deg
Eccentricity:    0.0009753
Arg of perigee:   270.2296 deg
Mean anomaly:     089.7750 deg
Mean motion:   14.12722485 rev/day
Decay rate:       1.47e-06 rev/day^2
Epoch rev:           59566
Checksum:              312

Satellite: NOAA-17
Catalog number: 27453
Epoch time:      12102.71261553
Element set:    0666
Inclination:      098.3417 deg
RA of node:       133.0899 deg
Eccentricity:    0.0011559
Arg of perigee:   356.7844 deg
Mean anomaly:     003.3262 deg
Mean motion:   14.24413759 rev/day
Decay rate:       -1.2e-07 rev/day^2
Epoch rev:           50929
Checksum:              302

Satellite: NOAA-18
Catalog number: 28654
Epoch time:      12102.79434111
Element set:    0142
Inclination:      099.0407 deg
RA of node:       060.3529 deg
Eccentricity:    0.0014137
Arg of perigee:   345.1666 deg
Mean anomaly:     014.9097 deg
Mean motion:   14.11631881 rev/day
Decay rate:       4.00e-06 rev/day^2
Epoch rev:           35519
Checksum:              279

Satellite: NOAA-19
Catalog number: 33591
Epoch time:      12102.78731364
Element set:    0333
Inclination:      098.8604 deg
RA of node:       043.4154 deg
Eccentricity:    0.0013520
Arg of perigee:   206.1366 deg
Mean anomaly:     153.9120 deg
Mean motion:   14.11319003 rev/day
Decay rate:        5.4e-07 rev/day^2
Epoch rev:           16364
Checksum:              260

/EX
SB KEPS @ AMSAT  $ORB12103.M
Orbital Elements  12103.MISC

HR AMSAT ORBITAL ELEMENTS FOR MANNED AND MISCELLANEOUS SATELLITES
FROM WA5QGD FORT WORTH,TX April 12, 2012
Send SUBSCRIBE KEPS/UNSUBSCRIBE KEPS to majordomo at amsat.org only
BID: ORB12103.M
TO ALL RADIO AMATEURS BT

Satellite: HUBBLE
Catalog number: 20580
Epoch time:      12101.50189587
Element set:     979
Inclination:      028.4695 deg
RA of node:       226.4333 deg
Eccentricity:    0.0003291
Arg of perigee:   062.4900 deg
Mean anomaly:     297.5817 deg
Mean motion:   15.02358714 rev/day
Decay rate:      1.554e-05 rev/day^2
Epoch rev:             454
Checksum:              292

Satellite: ISS
Catalog number: 25544
Epoch time:      12103.85539831
Element set:     363
Inclination:      051.6428 deg
RA of node:       089.3775 deg
Eccentricity:    0.0007675
Arg of perigee:   268.0021 deg
Mean anomaly:     165.7065 deg
Mean motion:   15.58228172 rev/day
Decay rate:     1.1250e-04 rev/day^2
Epoch rev:           76783
Checksum:              308

Satellite: CO-58
Catalog number: 28895
Epoch time:      12103.59143758
Element set:     147
Inclination:      097.9221 deg
RA of node:       332.7172 deg
Eccentricity:    0.0017594
Arg of perigee:   002.2090 deg
Mean anomaly:     357.9209 deg
Mean motion:   14.60557042 rev/day
Decay rate:       5.96e-06 rev/day^2
Epoch rev:           34408
Checksum:              318

Satellite: FALCON
Catalog number: 30776
Epoch time:      12103.88016056
Element set:     322
Inclination:      035.4339 deg
RA of node:       315.5930 deg
Eccentricity:    0.0001008
Arg of perigee:   207.8364 deg
Mean anomaly:     152.2291 deg
Mean motion:   15.07059744 rev/day
Decay rate:      3.413e-05 rev/day^2
Epoch rev:           28039
Checksum:              268

Satellite: MAST
Catalog number: 31126
Epoch time:      12103.57748710
Element set:     431
Inclination:      097.8758 deg
RA of node:       118.5128 deg
Eccentricity:    0.0093526
Arg of perigee:   315.9298 deg
Mean anomaly:     043.4465 deg
Mean motion:   14.54099467 rev/day
Decay rate:       3.93e-06 rev/day^2
Epoch rev:           26473
Checksum:              320

Satellite: CAPE1
Catalog number: 31130
Epoch time:      12103.69577526
Element set:     442
Inclination:      097.8861 deg
RA of node:       115.0482 deg
Eccentricity:    0.0100857
Arg of perigee:   328.3373 deg
Mean anomaly:     031.1766 deg
Mean motion:   14.52858175 rev/day
Decay rate:       4.91e-06 rev/day^2
Epoch rev:           26426
Checksum:              296

